Probability
3 2 3 3 1 0 0 0 1 0 0 1 3 3 3 3 3 3 3 2 1 0 0 0 0 0 0 0 0 0 0 0 0 0 0 0 0 0 0 0 0 0 0
3 3 3 4 3 2 2 3 3 2 1 2 3 3 3 3 3 3 3 1 0 0 0 0 0 0 0 0 0 0 0 0 0 0 0 0 0 0 0 0 0 0 0
4 3 4 5 5 5 5 7 8 5 3 3 3 3 3 3 3 3 3 1 0 0 0 0 0 0 0 0 0 0 0 0 0 0 0 0 0 0 0 0 0 0 0
5 4 4 5 6 6 7 10 11 9 6 4 3 3 3 3 3 3 2 1 0 0 0 0 0 0 0 0 0 0 0 0 0 0 0 0 0 0 0 0 0 0 0
6 6 6 7 8 8 10 12 13 12 8 5 4 3 3 3 2 2 1 1 0 0 0 0 0 0 0 0 0 0 0 0 0 0 0 0 0 0 0 0 0 0 0
6 6 9 12 12 12 14 16 16 12 8 5 4 3 2 1 1 1 1 0 0 0 0 0 0 0 0 0 0 0 0 0 0 0 0 0 0 0 0 0 0 0 0
7 8 12 17 17 16 18 19 17 13 8 5 4 3 2 1 1 1 1 1 0 0 0 0 0 0 0 0 0 0 0 0 0 0 0 0 0 0 0 0 0 0 0
9 10 13 18 20 20 21 20 18 15 11 8 5 4 3 4 4 3 2 1 0 0 0 0 0 0 0 0 0 0 0 0 0 0 0 0 0 0 0 0 0 0 0
12 13 15 18 20 20 20 20 18 16 14 11 8 5 3 5 5 3 1 0 0 0 0 0 0 0 0 0 0 0 0 0 0 0 0 0 0 0 0 0 0 0 0
15 16 16 17 18 19 19 18 17 15 12 11 8 4 1 2 3 1 0 0 0 0 0 0 0 0 0 0 0 0 0 0 0 0 0 0 0 0 0 0 0 0 0
16 16 16 15 15 16 16 14 12 10 8 7 5 2 0 0 0 0 0 0 0 0 0 0 0 0 0 0 0 0 0 0 0 0 0 0 0 0 0 0 0 0 0
12 13 14 13 11 10 10 9 8 6 5 3 2 0 0 0 0 0 0 0 0 0 0 0 0 0 0 0 0 0 0 0 0 0 0 0 0 0 0 0 0 0 0
8 9 11 11 9 8 7 7 5 3 2 1 0 0 0 0 0 0 0 0 0 0 0 0 0 0 0 0 0 0 0 0 0 0 0 0 0 0 0 0 0 0 0
4 6 8 8 8 8 7 6 5 3 1 0 0 0 0 0 0 0 0 0 0 0 0 0 0 0 0 0 0 0 0 0 0 0 0 0 0 0 0 0 0 0 0
3 4 5 4 4 5 6 6 5 3 1 0 0 0 0 0 0 0 0 0 0 0 0 0 0 0 0 0 0 0 0 0 0 0 0 0 0 0 0 0 0 0 0
2 2 1 1 1 2 4 6 6 5 2 0 0 0 0 0 0 0 0 0 0 0 0 0 0 0 0 0 0 0 0 0 0 0 0 0 0 0 0 0 0 0 0
2 1 0 0 0 1 3 5 6 5 3 1 0 0 0 0 0 0 0 0 0 0 0 0 0 0 0 0 0 0 0 0 0 0 0 0 0 0 0 0 0 0 0
1 2 1 1 1 1 2 4 4 4 3 2 1 0 0 0 0 0 0 0 0 0 0 0 0 0 0 0 0 0 0 0 0 0 0 0 0 0 0 0 0 0 0
1 2 3 3 2 1 1 3 3 3 2 2 2 1 1 0 0 0 0 0 0 0 0 0 0 0 0 0 0 0 0 0 0 0 0 0 0 0 0 0 0 0 0
1 3 5 4 3 3 2 2 2 1 0 1 2 2 2 1 1 0 0 0 0 0 0 0 0 0 0 0 0 0 0 0 0 0 0 0 0 0 0 0 0 0 0
1 3 5 5 4 4 3 3 2 1 0 0 1 3 3 3 2 1 0 0 0 0 0 0 0 0 0 0 0 0 0 0 0 0 0 0 0 0 0 0 0 0 0
0 1 3 4 3 3 3 3 3 2 1 0 1 2 3 3 3 2 1 1 0 0 0 0 0 0 0 0 0 0 0 0 0 0 0 0 0 0 0 0 0 0 0
0 0 1 1 1 2 2 2 2 2 1 0 1 2 3 3 3 3 3 2 1 0 0 0 0 0 0 0 0 0 0 0 0 0 0 0 0 0 0 0 0 0 0
0 0 0 0 0 1 1 1 1 1 1 0 0 1 2 3 3 3 3 3 1 0 0 0 0 0 0 0 0 0 0 0 0 0 0 0 0 0 0 0 0 0 0
0 0 0 0 0 0 0 0 0 0 0 0 0 0 1 3 3 3 3 3 2 1 0 0 0 0 0 0 0 0 0 0 0 0 0 0 0 0 0 0 0 0 0
0 0 0 0 0 0 0 0 0 0 0 0 0 0 1 2 3 3 3 3 3 2 1 0 0 0 0 0 0 0 0 0 0 0 0 0 0 0 0 0 0 0 0
Wind_Speed
4 5 10 12 13 13 13 13 14 14 14 14 14 13 13 13 12 12 12 12 11 11 11 12 12 12 12 12 12 12 12 12 11 11 11 11 11 11 10 10 9 5 9
7 7 11 13 14 14 13 14 14 14 13 13 13 13 13 12 12 11 11 11 11 11 11 11 11 12 12 12 12 12 12 11 11 11 10 9 9 10 9 9 8 6 9
9 8 10 13 13 14 13 13 13 13 13 13 13 13 12 12 11 11 11 11 11 11 11 11 11 11 11 12 12 11 11 10 10 10 9 5 5 8 9 8 8 8 8
10 8 9 13 13 14 14 14 13 13 13 12 12 12 12 11 11 11 11 11 11 11 10 10 11 11 10 11 11 11 10 10 10 9 5 4 4 7 8 8 7 7 7
8 7 9 13 13 14 14 14 13 13 13 12 12 11 11 11 11 11 11 10 10 10 10 10 10 10 9 9 10 10 10 10 9 7 4 4 3 6 8 8 8 7 6
8 6 8 13 14 14 13 13 13 12 12 12 11 11 11 10 10 10 10 10 10 10 10 10 9 9 8 9 9 10 9 9 7 4 4 3 3 6 7 7 7 7 7
7 6 8 12 13 13 13 13 12 12 11 11 10 10 10 10 10 9 9 9 9 9 9 9 8 8 9 9 9 9 9 9 5 4 3 3 3 5 6 6 6 6 6
8 6 6 11 12 12 12 12 12 11 11 10 10 9 9 9 9 9 9 8 8 9 9 8 8 8 8 8 9 9 9 7 5 4 2 2 3 5 5 5 5 5 5
6 6 5 6 8 10 11 11 10 10 10 10 9 9 8 8 8 8 8 7 7 7 7 7 8 8 8 8 8 8 8 7 4 2 2 1 3 4 4 4 4 5 5
5 5 5 5 5 5 6 9 9 9 9 9 9 8 8 7 7 7 6 6 6 6 6 7 7 7 8 8 8 8 7 6 3 2 1 2 4 3 4 4 4 5 5
5 4 5 5 5 5 4 6 7 8 8 8 7 8 6 3 3 3 5 5 5 5 6 6 7 7 7 7 8 8 6 3 2 2 1 4 4 4 4 4 4 4 4
8 6 4 5 5 4 4 4 3 3 4 4 4 4 3 3 3 3 4 5 5 5 5 6 6 6 5 3 5 6 3 3 2 2 2 5 5 4 4 5 5 4 4
8 6 5 5 5 5 3 3 2 2 2 3 4 4 4 3 2 2 2 2 3 4 3 4 4 3 3 2 2 2 2 2 1 1 3 6 6 5 5 6 5 5 5
7 7 6 6 5 5 4 3 3 2 2 2 3 4 3 2 2 2 2 2 2 1 2 2 2 3 3 3 3 3 3 2 1 1 3 6 6 6 6 7 6 6 6
7 7 6 6 6 5 4 3 3 3 3 3 2 3 4 3 3 2 2 2 2 2 2 2 2 2 2 2 2 3 2 2 2 2 2 5 7 7 7 7 7 7 7
7 7 6 6 6 5 4 4 3 3 3 3 2 3 4 3 3 3 2 2 1 1 2 2 2 2 2 2 2 2 2 2 2 2 2 3 6 7 7 7 8 8 8
7 6 6 6 5 5 5 4 3 3 3 3 3 3 3 3 4 3 3 2 1 1 2 2 2 2 2 2 2 2 2 2 2 2 2 2 3 6 8 8 9 9 8
6 6 6 6 6 6 5 4 3 3 3 3 3 3 4 4 4 3 3 2 2 2 2 2 2 2 2 2 1 2 2 2 1 1 2 2 2 2 5 8 9 10 9
7 7 6 6 6 6 5 4 3 3 3 2 2 3 3 4 4 3 3 2 3 2 2 2 2 2 1 1 1 2 2 2 1 2 2 2 2 2 2 6 9 10 10
5 5 6 5 5 5 4 3 3 2 2 2 2 3 4 3 4 4 3 2 3 3 2 2 2 2 1 1 2 2 2 2 1 2 1 1 2 2 2 3 3 5 9
4 5 6 6 5 5 4 4 4 3 2 2 2 3 4 4 4 4 3 3 3 3 3 3 3 3 1 1 2 2 2 2 1 1 1 1 2 2 2 2 2 2 4
6 6 6 7 6 6 5 4 3 3 2 2 1 2 3 4 4 4 4 3 3 3 3 3 3 2 1 1 2 1 2 3 3 2 1 1 1 2 2 3 2 2 2
6 7 7 7 6 6 5 4 3 3 2 2 2 2 2 3 4 4 5 4 4 4 3 3 3 4 2 1 1 2 2 2 2 2 2 1 2 2 2 2 2 2 3
7 5 5 6 6 6 6 6 7 5 4 4 3 2 2 2 3 4 4 4 4 3 4 3 3 3 4 2 1 1 1 2 1 2 2 2 2 2 2 2 3 3 3
5 5 5 5 5 5 5 7 6 4 3 2 2 3 2 1 2 3 4 4 4 3 3 4 3 3 3 3 2 1 1 1 1 1 3 3 3 2 2 2 2 2 3
3 4 4 5 4 4 5 5 6 6 5 5 3 3 2 1 1 2 3 3 3 3 3 3 3 4 3 3 2 2 2 2 2 2 3 3 4 3 2 2 2 2 3
Wind_Direction
177 176 160 147 143 137 129 123 119 115 113 111 109 108 106 104 102 99 96 94 91 89 90 90 89 89 86 85 86 85 82 80 78 74 71 73 77 77 81 77 73 66 71
152 160 154 146 142 138 132 126 122 118 116 114 111 109 107 105 103 102 99 96 93 90 87 88 89 89 87 85 85 84 81 79 76 71 66 63 70 75 80 80 76 73 70
142 151 150 144 141 137 133 127 125 122 119 117 114 112 109 107 106 105 104 100 96 91 87 85 85 86 87 87 85 83 80 79 77 71 62 46 54 73 77 79 77 73 72
142 144 145 142 141 138 135 132 128 125 121 118 116 114 112 110 108 105 105 101 96 91 87 86 84 84 84 84 83 81 78 77 76 70 53 38 35 68 73 71 74 72 70
135 138 145 142 142 139 137 135 130 127 124 121 118 116 113 111 109 106 103 102 98 94 91 88 86 85 83 83 84 82 79 75 73 65 48 35 28 61 69 68 66 67 64
132 134 145 144 143 141 139 137 133 129 126 123 121 117 116 114 112 110 104 101 99 97 94 91 88 86 86 87 85 83 81 78 72 62 49 34 29 58 65 68 66 59 55
135 135 146 144 144 142 140 137 134 131 129 126 123 121 120 117 113 110 107 103 102 101 97 94 90 86 85 86 85 83 80 78 76 67 52 30 28 56 64 68 67 60 54
138 135 143 143 140 141 141 138 136 134 132 130 128 125 121 118 115 111 108 107 104 101 97 93 90 88 87 86 83 81 78 76 74 62 45 18 22 51 59 59 58 56 53
129 129 132 136 137 139 139 138 137 135 133 131 128 124 118 115 115 113 109 106 105 104 101 95 91 86 87 84 82 80 75 71 71 54 31 5 15 42 52 47 45 45 46
122 126 129 123 124 128 133 136 135 134 133 130 125 119 114 112 109 107 105 105 105 103 100 96 92 86 79 76 75 74 69 62 57 40 14 351 4 29 44 41 40 41 43
142 135 134 129 127 127 129 132 132 131 131 129 124 119 111 100 97 96 96 101 104 106 102 95 90 84 73 65 65 67 62 51 44 24 360 354 360 14 35 33 29 29 26
169 164 149 143 139 133 134 126 122 121 123 120 118 119 108 101 96 95 91 94 91 90 91 88 83 78 70 57 52 59 55 47 42 15 2 4 6 14 26 23 23 20 14
172 167 163 155 149 144 138 131 124 119 117 117 124 124 116 105 95 87 86 77 78 81 75 70 68 65 69 67 58 54 54 53 39 15 3 8 6 12 17 16 10 9 3
169 175 168 161 156 154 148 144 141 134 134 134 137 138 132 124 115 109 101 97 87 81 84 74 74 70 68 64 67 61 52 47 33 18 6 13 13 14 14 14 9 2 359
173 178 175 169 165 160 153 155 150 151 151 149 142 148 146 142 141 130 118 107 98 92 98 91 82 75 66 53 52 55 43 33 28 22 5 18 21 17 13 11 8 4 359
181 181 174 172 172 163 162 163 163 159 153 146 150 156 153 149 146 138 127 118 113 113 114 112 102 91 77 66 49 37 26 23 29 25 19 16 23 20 14 9 6 6 4
181 179 177 176 170 166 167 167 161 160 154 157 160 157 157 154 152 147 140 137 137 122 112 102 90 82 73 63 45 26 24 20 30 27 28 27 15 20 15 11 6 4 3
173 173 177 173 169 171 169 164 159 158 156 161 158 157 160 159 155 147 145 151 140 126 120 114 103 90 64 53 38 16 13 18 22 26 40 32 23 21 15 15 8 3 359
176 172 171 168 169 170 165 155 148 145 151 156 155 159 164 160 158 149 150 151 137 127 125 123 99 108 96 66 50 27 14 12 0 32 40 31 26 28 20 13 9 3 356
170 164 163 161 163 158 151 137 129 124 146 153 162 167 160 160 158 151 148 146 140 132 129 125 114 91 100 96 63 35 5 358 15 30 19 20 23 23 16 7 359 355 354
158 160 167 164 167 160 158 160 160 172 176 171 177 168 165 162 161 158 156 152 151 152 156 147 128 104 73 70 75 21 359 6 21 10 7 22 14 6 12 5 356 352 345
175 174 173 175 175 176 172 167 164 159 158 163 161 160 170 169 168 165 163 164 162 153 145 147 137 124 90 65 110 95 356 347 354 352 359 8 350 357 2 354 349 344 333
184 184 182 181 178 174 162 141 124 105 93 123 157 177 187 175 172 168 169 164 162 162 166 167 156 147 152 100 91 137 142 243 310 326 338 343 337 342 329 333 336 328 329
195 186 178 175 172 168 163 160 158 162 173 188 182 180 172 169 170 169 167 166 165 167 169 175 166 161 152 157 116 75 145 160 170 308 315 326 330 327 320 327 330 322 319
180 173 169 164 166 166 165 167 165 163 169 161 144 144 151 164 172 171 167 164 169 174 176 172 166 162 162 164 163 160 131 99 164 192 281 303 318 303 303 301 303 309 314
159 156 156 158 166 167 165 167 168 166 161 154 162 169 172 173 179 174 164 166 173 176 180 181 173 165 170 164 163 165 168 174 194 200 254 287 297 298 302 293 287 293 303